Starlink 1695

operational
NORAD ID: 46329 Int'l Des: 2020-062 Owner: SPXS Country: US Constellation: starlink
LEOCIRCULARSTARLINK_TYPE

Über Starlink 1695

Beschreibung wird geladen...

Live-Position

3D-Globus wird geladen...

Nächste Überflüge

Höhenverlauf

Altitude vs Time

uPlot chart will show altitude changes over time

Zweizeiliger Elementsatz

1 46329U 20062E 25350.75196923 .00005602 00000-0 39449-3 0 9996
2 46329 53.0561 8.9410 0001475 87.4500 272.6658 15.06419333292081
Epoch: 16. Dez. 2025 • Age: 18 hours

Aktueller Status

Höhe 547.1 km
Geschwindigkeit 7.59 km/s
Subsatellitenpunkt 7.97°N, 111.22°E
Startdatum 3. Sept. 2020
Alter 5.2 years
Typ internet

Technische Details

Klassifizierung Payload
Masse 260.00 kg
Trockenmasse 248.00 kg
Gesamtmasse 260.00 kg
Länge 0.20 m
Durchmesser 2.80 m
Spannweite 9.00 m
Form Box + pan
Hersteller SPXS
Bus-Typ Starlink
Phasenstatus In Orbit
Besitzer/Staat SPXS/US

Große Konstellationen

Loading constellations...